Weather History for Point Lay, AK

Change the Weather History Date:

Saturday, December 29, 2012

  Actual Average Record
Temperature  
Mean Temperature -20 °F -  
Max Temperature -18 °F -5 °F 26 °F (2003)
Min Temperature -22 °F -13 °F -41 °F (2010)
Degree Days  
Heating Degree Days 85    
Moisture  
Dew Point -27 °F    
Average Humidity 73    
Maximum Humidity 76    
Minimum Humidity 69    
Precipitation  
Precipitation 0.00 in - - ()
Sea Level Pressure  
Sea Level Pressure 29.91 in    
Wind  
Wind Speed 21 mph (NE)    
Max Wind Speed 23 mph    
Max Gust Speed -    
Visibility 2 miles    
Events Snow    
Averages and records for this station are not official NWS values.
T = Trace of Precipitation, MM = Missing Value Source: NWS Daily Summary

Daily Weather History Graph

Daily Weather History Graph

Search for Another Location

Airport:

Trip Planner

Search our weather history database for the weather conditions in past years. The results will help you decide how hot, cold, wet, or windy it might be!

Date:

Astronomy

Dec. 31, 1969 Rise Set
Actual Time Sun does not rise Sun does not rise
Civil Twilight 11:38 AM AKST 4:10 PM AKST
Nautical Twilight 9:55 AM AKST 5:53 PM AKST
Astronomical Twilight 8:37 AM AKST 7:11 PM AKST
Moon 5:44 PM AKST (12/29) 12:37 PM AKST (12/29)
Length of Visible Light 4h 31m
Length of Day
0h 00m
Full, 98% of the Moon is Illuminated
Dec 29
Full
Jan 4
Last Quarter
Jan 11
New
Jan 18
First Quarter
Jan 26
Full

Hourly Weather History & Observations

Time (AKST) Temp. Windchill Dew Point Humidity Pressure Visibility Wind Dir Wind Speed Gust Speed Precip Events Conditions
12:56 AM -19.8 °F -47.8 °F -26.0 °F 73% 30.00 in - ENE 19.6 mph - 0.00 in   Mostly Cloudy
1:56 AM -19.8 °F -47.8 °F -26.0 °F 73% 30.00 in - ENE 19.6 mph - 0.00 in   Overcast
2:56 AM -18.4 °F -45.9 °F -25.6 °F 70% 29.97 in - ENE 19.6 mph - N/A   Overcast
3:56 AM -18.9 °F -45.9 °F -24.9 °F 74% 29.97 in - ENE 18.4 mph - N/A   Overcast
4:56 AM -19.8 °F -49.0 °F -26.0 °F 73% 29.96 in - NE 21.9 mph - N/A   Overcast
5:56 AM -20.9 °F -50.5 °F -26.9 °F 74% 29.94 in - NE 21.9 mph - N/A   Overcast
6:56 AM -22.0 °F -51.9 °F -28.8 °F 71% 29.93 in - NE 21.9 mph - N/A   Overcast
7:56 AM -22.0 °F -51.3 °F -27.9 °F 74% 29.91 in - NE 20.7 mph - N/A   Overcast
8:56 AM -20.9 °F -49.2 °F -26.9 °F 74% 29.92 in - ENE 19.6 mph - 0.00 in   Overcast
9:09 AM -20.2 °F -48.9 °F -27.4 °F 69% 29.90 in 1.5 mi ENE 20.7 mph - N/A   Haze
9:22 AM -20.2 °F -48.9 °F -27.4 °F 69% 29.90 in 3.0 mi NE 20.7 mph - N/A   Haze
9:56 AM -20.9 °F -49.8 °F -26.9 °F 74% 29.91 in 4.0 mi NE 20.7 mph - N/A   Haze
10:24 AM -20.2 °F -49.5 °F -25.6 °F 76% 29.89 in 2.0 mi NE 21.9 mph - N/A   Haze
10:29 AM -20.2 °F -48.9 °F -25.6 °F 76% 29.89 in 1.2 mi NE 20.7 mph - N/A   Haze
10:37 AM -20.2 °F -49.5 °F -25.6 °F 76% 29.89 in 0.8 mi NE 21.9 mph - 0.00 in Snow Light Snow
10:56 AM -18.9 °F -47.8 °F -24.9 °F 74% 29.90 in 1.0 mi NE 21.9 mph - 0.00 in Snow Light Snow
11:04 AM -18.4 °F -47.1 °F -25.6 °F 70% 29.88 in - NE 21.9 mph - 0.00 in Snow Light Snow
11:56 AM -18.9 °F -47.2 °F -24.9 °F 74% 29.90 in - NE 20.7 mph - 0.00 in   Overcast
12:56 PM -19.8 °F -48.4 °F -26.0 °F 73% 29.90 in - NE 20.7 mph - N/A   Overcast
1:56 PM -20.9 °F -50.5 °F -27.9 °F 70% 29.89 in - NE 21.9 mph - N/A   Overcast
2:56 PM -22.9 °F -52.4 °F -28.8 °F 74% 29.89 in - NE 20.7 mph - N/A   Overcast
3:56 PM -22.0 °F -50.6 °F -27.9 °F 74% 29.88 in - NE 19.6 mph - N/A   Overcast
4:56 PM -20.9 °F -50.5 °F -26.9 °F 74% 29.88 in - ENE 21.9 mph - N/A   Overcast
5:56 PM -22.0 °F -51.3 °F -27.9 °F 74% 29.89 in - ENE 20.7 mph - N/A   Overcast
6:56 PM -22.0 °F -51.9 °F -27.9 °F 74% 29.88 in - NE 21.9 mph - N/A   Overcast
7:56 PM -22.9 °F -51.1 °F -28.8 °F 74% 29.90 in - ENE 18.4 mph - N/A   Mostly Cloudy
8:56 PM -22.9 °F -51.8 °F -28.8 °F 74% 29.91 in - NE 19.6 mph - N/A   Mostly Cloudy
9:56 PM -22.9 °F -53.1 °F -28.8 °F 74% 29.90 in - NE 21.9 mph - 0.00 in Snow Light Snow
10:56 PM -22.9 °F -53.7 °F -28.8 °F 74% 29.90 in - NE 23.0 mph - 0.00 in   Overcast
11:56 PM -22.0 °F -52.5 °F -27.9 °F 74% 29.90 in - NE 23.0 mph - N/A   Mostly Cloudy